Location: Alfortville
(48.8058°N, 2.4204°E)
Time: 19:27:44
(UTC+00:00)

Cosmos 1943 Rocket - Pass Details

Date: 24 October 2021
Orbit: 811 x 844 km, 71.0° (Epoch: 07 December)

Event Time Altitude Azimuth Distance (km) Brightness Sun altitude
Rises 20:25:07 0° 335° (NNW) 3,415 6.0 -36.4°
Reaches altitude 10° 20:27:49 10° 344° (NNW) 2,476 5.0 -36.8°
Enters shadow 20:29:24 18° 354° (N) 1,979 4.4 -37.0°
